Date String (YYYY-MM-DD hh:mm:ss) UTC,Instrument flags,absolute air pressure of the measurement (hPa),sample flow rate (lpm),inlet stack bypass flow (lpm),air temperature of the measurement (°C),ambient temperature measured by the external sensor (°C),aerosol sample conditioner tube jacket temperature (°C),OPC LED temperature (°C),internal box temperature (°C),relative humidity of the measurement (%),span deviation,mass concentration of particles derived from Lorenz-Mie calculation of OPC scattering (μg/m³),mass concentration of particles derived from Lorenz-Mie calculation of OPC scattering (μg/m³),mass concentration of particles derived from Lorenz-Mie calculation of OPC scattering (μg/m³)
DateTimeUTC,F1_M11,P_M11,Q1_M11,Q2_M11,T1_M11,T2_M11,T3_M11,T4_M11,T5_M11,U1_M11,ZSPAN_M11,X2_M11,X0_M11,X1_M11
2023-12-22 11:00:00,SystemResetWarning,0832.4,5.00,000.00,022.9,022.1,000.0,031.2,024.3,13.6,0000.0,0002.59,0004.21,0002.20
2023-12-22 11:01:00,SystemResetWarning,0832.4,4.99,000.00,022.9,022.1,000.0,031.2,024.3,13.5,0000.0,0002.59,0004.38,0002.18
2023-12-22 11:02:00,SystemResetWarning,0832.4,4.99,000.00,022.9,022.1,000.0,031.2,024.3,13.5,0000.0,0002.51,0004.06,0002.17
2023-12-22 11:03:00,SystemResetWarning,0832.4,5.01,000.00,022.9,022.1,000.0,031.2,024.3,13.6,0000.0,0002.49,0004.13,0002.16
2023-12-22 11:04:00,SystemResetWarning,0832.4,5.01,000.00,022.9,022.0,000.0,031.2,024.3,13.6,0000.0,0002.45,0004.10,0002.13
2023-12-22 11:05:00,SystemResetWarning,0832.3,5.01,000.00,022.9,022.0,000.0,031.2,024.3,13.6,0000.0,0002.41,0003.95,0002.12
2023-12-22 11:06:00,SystemResetWarning,0832.3,5.00,000.00,022.9,022.0,000.0,031.2,024.3,13.5,0000.0,0002.40,0003.92,0002.10
2023-12-22 11:07:00,SystemResetWarning,0832.3,4.99,000.00,022.9,022.0,000.0,031.2,024.3,13.5,0000.0,0002.40,0003.87,0002.09
2023-12-22 11:08:00,SystemResetWarning,0832.3,5.00,000.00,022.9,022.1,000.0,031.2,024.3,13.5,0000.0,0002.42,0004.56,0002.08
2023-12-22 11:09:00,SystemResetWarning,0832.3,5.00,000.00,022.9,022.1,000.0,031.2,024.3,13.5,0000.0,0002.42,0004.68,0002.08
2023-12-22 11:10:00,SystemResetWarning,0832.3,5.00,000.00,022.9,022.1,000.0,031.2,024.3,13.5,0000.0,0002.41,0004.71,0002.06
2023-12-22 11:11:00,SystemResetWarning,0832.3,5.00,000.00,022.9,022.0,000.0,031.2,024.3,13.6,0000.0,0002.42,0004.50,0002.07
2023-12-22 11:12:00,SystemResetWarning,0832.3,5.00,000.00,022.9,022.0,000.0,031.2,024.3,13.6,0000.0,0002.45,0004.51,0002.08
2023-12-22 11:13:00,SystemResetWarning,0832.3,5.00,000.00,022.9,022.0,000.0,031.2,024.3,13.6,0000.0,0002.50,0005.87,0002.10
2023-12-22 11:14:00,SystemResetWarning,0832.3,5.00,000.00,022.9,022.0,000.0,031.2,024.3,13.6,0000.0,0002.55,0006.22,0002.11
2023-12-22 11:15:00,SystemResetWarning,0832.3,5.00,000.00,022.9,022.0,000.0,031.2,024.3,13.6,0000.0,0002.64,0006.42,0002.13
2023-12-22 11:16:00,SystemResetWarning,0832.3,5.00,000.00,022.9,022.0,000.0,031.2,024.3,13.6,0000.0,0002.67,0006.59,0002.15
2023-12-22 11:17:00,SystemResetWarning,0832.2,5.00,000.00,022.9,022.0,000.0,031.2,024.3,13.7,0000.0,0002.67,0006.57,0002.16
2023-12-22 11:18:00,SystemResetWarning,0832.2,4.99,000.00,022.9,022.1,000.0,031.2,024.3,13.7,0000.0,0002.69,0006.60,0002.18
2023-12-22 11:19:00,SystemResetWarning,0832.2,4.99,000.00,022.9,022.1,000.0,031.2,024.3,13.8,0000.0,0002.70,0005.97,0002.19
2023-12-22 11:20:00,SystemResetWarning,0832.2,5.00,000.00,022.9,022.0,000.0,031.2,024.3,13.8,0000.0,0002.74,0005.93,0002.22
2023-12-22 11:21:00,SystemResetWarning,0832.2,5.01,000.00,022.9,022.0,000.0,031.2,024.3,13.7,0000.0,0002.76,0006.02,0002.25
2023-12-22 11:22:00,SystemResetWarning,0832.1,5.00,000.00,022.9,022.0,000.0,031.2,024.3,13.7,0000.0,0002.78,0006.01,0002.27
2023-12-22 11:23:00,SystemResetWarning,0832.2,5.00,000.00,022.9,021.9,000.0,031.2,024.2,13.8,0000.0,0002.81,0005.82,0002.28
2023-12-22 11:24:00,SystemResetWarning,0832.2,5.00,000.00,022.9,021.9,000.0,031.2,024.2,13.8,0000.0,0002.82,0004.56,0002.30
2023-12-22 11:25:00,SystemResetWarning,0832.2,5.00,000.00,022.9,021.9,000.0,031.2,024.2,13.8,0000.0,0002.83,0004.11,0002.32
2023-12-22 11:26:00,SystemResetWarning,0832.2,5.00,000.00,022.9,021.9,000.0,031.2,024.2,13.7,0000.0,0002.78,0003.92,0002.34
2023-12-22 11:27:00,SystemResetWarning,0832.2,5.00,000.00,022.8,021.8,000.0,031.2,024.2,13.7,0000.0,0002.77,0003.73,0002.36
2023-12-22 11:28:00,SystemResetWarning,0832.2,5.00,000.00,022.8,021.8,000.0,031.2,024.2,13.6,0000.0,0002.78,0003.73,0002.37
2023-12-22 11:29:00,SystemResetWarning,0832.2,5.00,000.00,022.8,021.8,000.0,031.2,024.2,13.7,0000.0,0002.81,0003.79,0002.39
2023-12-22 11:30:00,SystemResetWarning,0832.2,5.00,000.00,022.8,021.8,000.0,031.2,024.2,13.7,0000.0,0002.83,0003.81,0002.43
2023-12-22 11:31:00,SystemResetWarning,0832.2,5.00,000.00,022.8,021.7,000.0,031.2,024.2,13.7,0000.0,0002.83,0003.79,0002.44
2023-12-22 11:32:00,SystemResetWarning,0832.2,5.00,000.00,022.8,021.7,000.0,031.2,024.2,13.7,0000.0,0002.85,0003.76,0002.45
2023-12-22 11:33:00,SystemResetWarning,0832.2,5.00,000.00,022.8,021.7,000.0,031.2,024.1,13.7,0000.0,0002.84,0004.67,0002.46
2023-12-22 11:34:00,SystemResetWarning,0832.2,5.00,000.00,022.8,021.7,000.0,031.1,024.1,13.6,0000.0,0002.79,0004.66,0002.45
2023-12-22 11:35:00,SystemResetWarning,0832.2,5.00,000.00,022.8,021.7,000.0,031.1,024.1,13.6,0000.0,0002.75,0004.73,0002.43
2023-12-22 11:36:00,SystemResetWarning,0832.2,5.00,000.00,022.7,021.7,000.0,031.1,024.1,13.6,0000.0,0002.74,0004.70,0002.41
2023-12-22 11:37:00,SystemResetWarning,0832.2,5.00,000.00,022.7,021.6,000.0,031.1,024.1,13.7,0000.0,0002.74,0004.75,0002.39
2023-12-22 11:38:00,SystemResetWarning,0832.2,5.01,000.00,022.7,021.7,000.0,031.1,024.1,13.6,0000.0,0002.75,0004.82,0002.38
2023-12-22 11:39:00,SystemResetWarning,0832.2,5.00,000.00,022.7,021.7,000.0,031.1,024.1,13.6,0000.0,0002.75,0004.93,0002.37
2023-12-22 11:40:00,SystemResetWarning,0832.2,4.99,000.00,022.7,021.7,000.0,031.1,024.1,13.6,0000.0,0002.71,0004.86,0002.35
2023-12-22 11:41:00,SystemResetWarning,0832.2,4.99,000.00,022.7,021.7,000.0,031.1,024.1,13.6,0000.0,0002.66,0004.79,0002.30
2023-12-22 11:42:00,SystemResetWarning,0832.2,5.00,000.00,022.7,021.7,000.0,031.1,024.1,13.7,0000.0,0002.65,0005.86,0002.30
2023-12-22 11:43:00,SystemResetWarning,0832.2,5.00,000.00,022.7,021.7,000.0,031.1,024.1,13.7,0000.0,0002.64,0006.34,0002.27
2023-12-22 11:44:00,SystemResetWarning,0832.2,5.00,000.00,022.7,021.7,000.0,031.1,024.1,13.6,0000.0,0002.67,0005.86,0002.26
2023-12-22 11:45:00,SystemResetWarning,0832.2,5.00,000.00,022.7,021.7,000.0,031.1,024.1,13.6,0000.0,0002.68,0006.49,0002.25
2023-12-22 11:46:00,SystemResetWarning,0832.2,5.00,000.00,022.7,021.7,000.0,031.1,024.1,13.7,0000.0,0002.65,0006.68,0002.23
2023-12-22 11:47:00,SystemResetWarning,0832.2,5.00,000.00,022.7,021.6,000.0,031.1,024.1,13.7,0000.0,0002.67,0006.75,0002.22
2023-12-22 11:48:00,SystemResetWarning,0832.2,5.00,000.00,022.7,021.6,000.0,031.1,024.1,13.7,0000.0,0002.65,0006.75,0002.20
2023-12-22 11:49:00,SystemResetWarning,0832.2,5.00,000.00,022.7,021.6,000.0,031.0,024.1,13.7,0000.0,0002.62,0006.69,0002.18
2023-12-22 11:50:00,SystemResetWarning,0832.2,5.00,000.00,022.7,021.6,000.0,031.0,024.0,13.7,0000.0,0002.61,0006.53,0002.16
2023-12-22 11:51:00,SystemResetWarning,0832.1,5.00,000.00,022.7,021.6,000.0,031.0,024.0,13.7,0000.0,0002.63,0007.07,0002.18
2023-12-22 11:52:00,SystemResetWarning,0832.1,5.00,000.00,022.6,021.6,000.0,031.0,024.0,13.7,0000.0,0002.64,0007.39,0002.17
2023-12-22 11:53:00,SystemResetWarning,0832.1,5.00,000.00,022.6,021.6,000.0,031.0,024.0,13.8,0000.0,0002.64,0007.33,0002.16
2023-12-22 11:54:00,SystemResetWarning,0832.1,5.00,000.00,022.6,021.6,000.0,031.0,024.0,13.8,0000.0,0002.66,0007.02,0002.13
2023-12-22 11:55:00,SystemResetWarning,0832.1,5.00,000.00,022.6,021.6,000.0,031.0,024.0,13.8,0000.0,0002.62,0006.67,0002.12
2023-12-22 11:56:00,SystemResetWarning,0832.1,5.00,000.00,022.6,021.6,000.0,031.0,024.0,13.8,0000.0,0002.57,0005.80,0002.12
2023-12-22 11:57:00,SystemResetWarning,0832.1,5.00,000.00,022.6,021.6,000.0,031.0,024.0,13.7,0000.0,0002.56,0005.48,0002.12
2023-12-22 11:58:00,SystemResetWarning,0832.1,5.00,000.00,022.6,021.5,000.0,031.0,024.0,13.7,0000.0,0002.48,0005.23,0002.11
2023-12-22 11:59:00,SystemResetWarning,0832.0,5.00,000.00,022.6,021.5,000.0,031.0,023.9,13.7,0000.0,0002.45,0005.19,0002.10
